Location: Songkhla
(7.2000°N, 100.6000°E)
Time: 20:20:46
(UTC+07:00)

BlueWalker 3 - Pass Details

Date: 16 April 2026
Orbit: 447 x 457 km, 53.2° (Epoch: 20 May)

Event Time Altitude Azimuth Distance (km) Brightness Sun altitude
Rises 19:49:15 0° 324° (NW) 2,460 6.2 -21.0°
Reaches altitude 10° 19:51:23 10° 322° (NW) 1,588 5.2 -21.5°
Enters shadow 19:54:43 72° 280° (W) 481 1.9 -22.3°
